Location: Zapote
(9.9191°N, 84.0597°W)
Time: 04:43:55
(UTC-06:00)

Hubble Space Telescope - Pass Details

Date: 30 January 2021
Orbit: 536 x 539 km, 28.5° (Epoch: 28 February)

Event Time Altitude Azimuth Distance (km) Brightness Sun altitude
Rises 19:58:57 0° 275° (W) 2,670 5.3 -33.6°
Reaches altitude 10° 20:01:44 10° 256° (WSW) 1,781 4.2 -34.3°
Enters shadow 20:02:54 15° 242° (WSW) 1,505 3.7 -34.6°
